Weather History for Dyersburg, TN

Change the Weather History Date:

Thursday, December 20, 2012

  Actual Average Record
Temperature  
Mean Temperature 53 °F -  
Max Temperature 62 °F 44 °F 66 °F (2013)
Min Temperature 44 °F 29 °F 8 °F (2000)
Degree Days  
Heating Degree Days 12    
Growing Degree Days 3 (Base 50)    
Moisture  
Dew Point 43 °F    
Average Humidity 65    
Maximum Humidity 82    
Minimum Humidity 49    
Precipitation  
Precipitation 0.00 in - - ()
Sea Level Pressure  
Sea Level Pressure 29.58 in    
Wind  
Wind Speed 17 mph (SW)    
Max Wind Speed 39 mph    
Max Gust Speed 47 mph    
Visibility 10 miles    
Events Thunderstorm    
Averages and records for this station are not official NWS values.
T = Trace of Precipitation, MM = Missing Value Source: NWS Daily Summary

Daily Weather History Graph

Daily Weather History Graph

Search for Another Location

Airport:

Trip Planner

Search our weather history database for the weather conditions in past years. The results will help you decide how hot, cold, wet, or windy it might be!

Date:

Astronomy

Dec. 20, 2012 Rise Set
Actual Time 7:04 AM CST 4:46 PM CST
Civil Twilight 6:35 AM CST 5:15 PM CST
Nautical Twilight 6:03 AM CST 5:47 PM CST
Astronomical Twilight 5:32 AM CST 6:18 PM CST
Moon 11:56 AM CST (12/20) 12:01 AM CST (12/20)
Length of Visible Light 10h 40m
Length of Day
9h 42m
First Quarter, 55% of the Moon is Illuminated
Dec 20
First Quarter
Dec 28
Full
Jan 4
Last Quarter
Jan 11
New
Jan 18
First Quarter

Hourly Weather History & Observations

Time (CST) Temp. Windchill Dew Point Humidity Pressure Visibility Wind Dir Wind Speed Gust Speed Precip Events Conditions
12:15 AM 62.6 °F - 44.6 °F 52% 29.67 in 10.0 mi SSE 13.8 mph 23.0 mph N/A   Scattered Clouds
12:35 AM 62.6 °F - 44.6 °F 52% 29.65 in 10.0 mi SSE 13.8 mph 24.2 mph N/A   Mostly Cloudy
1:15 AM 60.8 °F - 46.4 °F 59% 29.62 in 10.0 mi SSE 12.7 mph 20.7 mph N/A   Overcast
1:35 AM 60.8 °F - 48.2 °F 63% 29.60 in 10.0 mi SSE 13.8 mph 19.6 mph N/A   Partly Cloudy
2:15 AM 62.6 °F - 50.0 °F 63% 29.58 in 10.0 mi SSE 12.7 mph 20.7 mph N/A   Overcast
2:35 AM 62.6 °F - 50.0 °F 63% 29.57 in 10.0 mi SSE 13.8 mph 24.2 mph N/A   Overcast
2:56 AM 62.6 °F - 51.8 °F 68% 29.55 in 10.0 mi SSE 17.3 mph 23.0 mph N/A   Overcast
3:15 AM 62.6 °F - 51.8 °F 68% 29.54 in 10.0 mi South 16.1 mph 24.2 mph N/A   Overcast
3:35 AM 60.8 °F - 51.8 °F 72% 29.52 in 10.0 mi SSE 17.3 mph 26.5 mph N/A   Overcast
3:55 AM 60.8 °F - 51.8 °F 72% 29.50 in 10.0 mi SSE 16.1 mph 26.5 mph N/A   Overcast
4:15 AM 60.8 °F - 51.8 °F 72% 29.48 in 10.0 mi South 13.8 mph 25.3 mph N/A   Overcast
4:35 AM 60.8 °F - 53.6 °F 77% 29.55 in 4.0 mi WSW 27.6 mph 41.4 mph N/A Thunderstorm Overcast
4:56 AM 59.0 °F - 51.8 °F 77% 29.54 in 10.0 mi SW 13.8 mph 24.2 mph N/A Thunderstorm Overcast
5:15 AM 57.2 °F - 51.8 °F 82% 29.52 in 9.0 mi SW 9.2 mph - N/A   Overcast
5:35 AM 57.2 °F - 50.0 °F 77% 29.51 in 10.0 mi SSW 8.1 mph - N/A   Overcast
6:15 AM 55.4 °F - 46.4 °F 72% 29.52 in 10.0 mi SSW 13.8 mph 20.7 mph N/A   Overcast
6:35 AM 55.4 °F - 46.4 °F 72% 29.52 in 10.0 mi SW 16.1 mph 27.6 mph N/A   Overcast
6:55 AM 55.4 °F - 44.6 °F 67% 29.52 in 10.0 mi SW 11.5 mph 23.0 mph N/A   Mostly Cloudy
7:16 AM 55.4 °F - 46.4 °F 72% 29.52 in 10.0 mi SW 17.3 mph 27.6 mph N/A   Overcast
7:35 AM 55.4 °F - 46.4 °F 72% 29.52 in 10.0 mi SW 25.3 mph 31.1 mph N/A   Mostly Cloudy
7:55 AM 53.6 °F - 41.0 °F 62% 29.55 in 10.0 mi WSW 26.5 mph 39.1 mph N/A   Mostly Cloudy
8:15 AM 51.8 °F - 37.4 °F 58% 29.58 in 10.0 mi West 25.3 mph 35.7 mph N/A   Scattered Clouds
8:36 AM 48.2 °F - 35.6 °F 62% 29.59 in 10.0 mi WSW 29.9 mph 39.1 mph N/A   Partly Cloudy
8:55 AM 48.2 °F - 35.6 °F 62% 29.60 in 10.0 mi WSW 31.1 mph 42.6 mph N/A   Clear
9:35 AM 50.0 °F - 35.6 °F 58% 29.63 in 10.0 mi WSW 39.1 mph 47.2 mph N/A   Mostly Cloudy
9:55 AM 46.4 °F 37.2 °F 32.0 °F 57% 29.66 in 10.0 mi WSW 29.9 mph 46.0 mph N/A   Overcast
10:15 AM 46.4 °F 38.3 °F 32.0 °F 57% 29.66 in 10.0 mi WSW 23.0 mph 41.4 mph N/A   Overcast
10:35 AM 44.6 °F 35.7 °F 32.0 °F 61% 29.68 in 10.0 mi West 24.2 mph 35.7 mph N/A   Overcast
10:36 AM 44.6 °F 35.7 °F 32.0 °F 61% 29.68 in 10.0 mi West 24.2 mph 40.3 mph N/A   Overcast
10:55 AM 44.6 °F 35.3 °F 28.4 °F 53% 29.69 in 10.0 mi West 26.5 mph 40.3 mph N/A   Overcast
11:15 AM 44.6 °F 34.9 °F 26.6 °F 49% 29.70 in 10.0 mi West 28.8 mph 34.5 mph N/A   Overcast